GPS BIII-9 (PRN 20)

Last updated on Wed Jun 24 2026 00:03:27 GMT+0000 (Coordinated Universal Time)

1 67588U 26017A 26173.18291057 -.00000045 00000+0 00000+0 0 9990 2 67588 55.0914 88.5546 0021963 258.8274 100.9301 2.00571109431718
UTC large
Height (km)
Speed (km/s)
/
Latitude / Longitude
Inclination (degrees)
Orbital Period (minutes)
Azimuth
Elevation
Range (km)
Doppler Factor

Next 0 passes for location: London (51.5072 / 0.1276)

No passes found over London.
GPS BIII-9 (PRN 20)